UAL12Y KSFO-KLAX

Flight info

Callsign UAL12Y
Flight time 0h 55m
Altitude 35000
Route WESLA5 SUSEY EBAYE BURGL IRNMN2
Aircraft B738/M-SDE2E3FGHIRWXY/LB1

Departure

Time 2026-04-22 19:56
Airport San Francisco International Airport (KSFO)

Arrival

Time 2026-04-22 20:51
Airport Los Angeles International Airport (KLAX)
Time Latitude Longitude Altitude Speed Heading
2026-04-22 19:18 37.62073 -122.39062 21 ft 0 kts 73°
2026-04-22 19:43 37.62067 -122.39085 21 ft 4 kts 70°
2026-04-22 19:43 37.62056 -122.39115 21 ft 4 kts 50°
2026-04-22 19:43 37.62036 -122.39136 21 ft 4 kts 18°
2026-04-22 19:44 37.62012 -122.39137 23 ft 4 kts 328°
2026-04-22 19:44 37.62002 -122.39127 21 ft 1 kts 297°
2026-04-22 19:47 37.62008 -122.39140 21 ft 5 kts 297°
2026-04-22 19:47 37.62029 -122.39190 22 ft 6 kts 302°
2026-04-22 19:47 37.62069 -122.39210 21 ft 8 kts 10°
2026-04-22 19:48 37.62135 -122.39169 23 ft 13 kts 27°
2026-04-22 19:48 37.62213 -122.39115 21 ft 12 kts 39°
2026-04-22 19:48 37.62247 -122.39025 21 ft 11 kts 72°
2026-04-22 19:48 37.62264 -122.38932 21 ft 11 kts 94°
2026-04-22 19:49 37.62236 -122.38847 22 ft 11 kts 117°
2026-04-22 19:49 37.62185 -122.38726 22 ft 20 kts 118°
2026-04-22 19:49 37.62115 -122.38559 21 ft 22 kts 118°
2026-04-22 19:49 37.62046 -122.38392 22 ft 21 kts 118°
2026-04-22 19:50 37.61978 -122.38231 23 ft 20 kts 118°
2026-04-22 19:50 37.61912 -122.38075 22 ft 20 kts 118°
2026-04-22 19:50 37.61849 -122.37923 22 ft 19 kts 117°
2026-04-22 19:50 37.61799 -122.37770 21 ft 19 kts 110°
2026-04-22 19:51 37.61754 -122.37620 21 ft 18 kts 111°
2026-04-22 19:51 37.61706 -122.37478 23 ft 17 kts 115°
2026-04-22 19:51 37.61650 -122.37344 21 ft 19 kts 118°
2026-04-22 19:51 37.61584 -122.37188 21 ft 20 kts 117°
2026-04-22 19:52 37.61519 -122.37033 22 ft 20 kts 118°
2026-04-22 19:52 37.61445 -122.36894 21 ft 19 kts 134°
2026-04-22 19:52 37.61361 -122.36769 23 ft 18 kts 123°
2026-04-22 19:52 37.61301 -122.36627 23 ft 18 kts 118°
2026-04-22 19:53 37.61245 -122.36493 22 ft 17 kts 118°
2026-04-22 19:53 37.61189 -122.36363 22 ft 17 kts 118°
2026-04-22 19:53 37.61134 -122.36228 21 ft 18 kts 117°
2026-04-22 19:53 37.61075 -122.36092 21 ft 17 kts 118°
2026-04-22 19:54 37.61060 -122.35951 21 ft 17 kts 61°
2026-04-22 19:54 37.61153 -122.35869 22 ft 16 kts 27°
2026-04-22 19:54 37.61250 -122.35805 23 ft 16 kts 28°
2026-04-22 19:54 37.61340 -122.35747 22 ft 10 kts 17°
2026-04-22 19:55 37.61376 -122.35769 22 ft 5 kts 299°
2026-04-22 19:55 37.61397 -122.35824 22 ft 16 kts 297°
2026-04-22 19:55 37.61559 -122.36209 21 ft 84 kts 298°
2026-04-22 19:55 37.61930 -122.37094 21 ft 142 kts 298°
2026-04-22 19:56 37.62464 -122.38360 111 ft 178 kts 298°
2026-04-22 19:56 37.63051 -122.39743 746 ft 176 kts 296°
2026-04-22 19:56 37.63618 -122.41137 1285 ft 186 kts 296°
2026-04-22 19:56 37.64241 -122.42681 1638 ft 203 kts 296°
2026-04-22 19:57 37.64876 -122.44240 2374 ft 199 kts 296°
2026-04-22 19:57 37.65511 -122.45776 3042 ft 199 kts 297°
2026-04-22 19:57 37.66188 -122.47412 3283 ft 221 kts 297°
2026-04-22 19:57 37.66776 -122.49279 3475 ft 238 kts 275°
2026-04-22 19:58 37.66479 -122.51372 3684 ft 255 kts 239°
2026-04-22 19:58 37.65249 -122.52977 4248 ft 259 kts 209°
2026-04-22 19:58 37.63528 -122.53570 4978 ft 260 kts 178°
2026-04-22 19:58 37.61766 -122.53086 5723 ft 262 kts 162°
2026-04-22 19:59 37.60035 -122.52299 6412 ft 266 kts 161°
2026-04-22 20:00 37.49025 -122.47353 10433 ft 308 kts 152°
2026-04-22 20:00 37.47359 -122.45499 10619 ft 334 kts 135°
2026-04-22 20:01 37.45748 -122.43293 11028 ft 349 kts 134°
2026-04-22 20:01 37.44107 -122.41006 11677 ft 355 kts 134°
2026-04-22 20:01 37.42437 -122.38683 12384 ft 359 kts 135°
2026-04-22 20:01 37.40670 -122.36435 13030 ft 366 kts 135°
2026-04-22 20:02 37.38940 -122.34051 13686 ft 372 kts 134°
2026-04-22 20:02 37.37191 -122.31608 14335 ft 379 kts 135°
2026-04-22 20:02 37.35410 -122.29124 15004 ft 386 kts 135°
2026-04-22 20:02 37.33577 -122.26615 15617 ft 393 kts 137°
2026-04-22 20:03 37.31706 -122.24087 16300 ft 398 kts 136°
2026-04-22 20:03 37.29816 -122.21509 16962 ft 404 kts 137°
2026-04-22 20:03 37.27925 -122.18920 17603 ft 409 kts 137°
2026-04-22 20:03 37.25958 -122.16235 18213 ft 416 kts 138°
2026-04-22 20:04 37.23950 -122.13576 18755 ft 423 kts 139°
2026-04-22 20:04 37.21938 -122.10934 19443 ft 426 kts 138°
2026-04-22 20:04 37.19903 -122.08141 20090 ft 431 kts 136°
2026-04-22 20:04 37.17913 -122.05364 20678 ft 435 kts 138°
2026-04-22 20:05 37.15834 -122.02583 21238 ft 438 kts 140°
2026-04-22 20:05 37.13732 -121.99782 21804 ft 444 kts 138°
2026-04-22 20:05 37.13541 -121.99523 21854 ft 444 kts 139°
2026-04-22 20:05 37.12882 -121.98630 22020 ft 446 kts 139°
2026-04-22 20:06 37.11272 -121.96459 22402 ft 449 kts 139°
2026-04-22 20:06 37.09134 -121.93594 22962 ft 452 kts 140°
2026-04-22 20:06 37.06993 -121.90694 23489 ft 457 kts 137°
2026-04-22 20:06 37.04875 -121.87698 23999 ft 459 kts 139°
2026-04-22 20:07 37.02707 -121.84749 24493 ft 462 kts 140°
2026-04-22 20:07 37.00492 -121.81825 24955 ft 465 kts 141°
2026-04-22 20:07 36.98248 -121.78905 25464 ft 466 kts 141°
2026-04-22 20:07 36.96000 -121.75965 25945 ft 469 kts 141°
2026-04-22 20:08 36.93745 -121.72995 26373 ft 472 kts 141°
2026-04-22 20:08 36.91483 -121.69998 26805 ft 475 kts 141°
2026-04-22 20:08 36.89214 -121.66981 27254 ft 477 kts 141°
2026-04-22 20:08 36.86942 -121.63958 27684 ft 479 kts 141°
2026-04-22 20:09 36.84653 -121.60914 28078 ft 482 kts 141°
2026-04-22 20:09 36.82347 -121.57855 28472 ft 485 kts 141°
2026-04-22 20:09 36.80032 -121.54782 28859 ft 487 kts 141°
2026-04-22 20:09 36.77709 -121.51697 29247 ft 489 kts 141°
2026-04-22 20:10 36.75358 -121.48610 29570 ft 490 kts 143°
2026-04-22 20:10 36.72954 -121.45579 29871 ft 494 kts 142°
2026-04-22 20:10 36.70593 -121.42442 30174 ft 498 kts 141°
2026-04-22 20:10 36.68239 -121.39261 30498 ft 500 kts 140°
2026-04-22 20:11 36.65864 -121.36089 30806 ft 502 kts 141°
2026-04-22 20:11 36.63473 -121.32911 31071 ft 504 kts 141°
2026-04-22 20:11 36.61108 -121.29781 31463 ft 503 kts 142°
2026-04-22 20:11 36.58709 -121.26618 31900 ft 501 kts 142°
2026-04-22 20:12 36.56322 -121.23471 32325 ft 498 kts 142°
2026-04-22 20:12 36.53902 -121.20411 32675 ft 496 kts 143°
2026-04-22 20:12 36.52298 -121.18280 32862 ft 500 kts 141°
2026-04-22 20:12 36.49170 -121.14088 33348 ft 498 kts 142°
2026-04-22 20:13 36.46789 -121.10970 33718 ft 496 kts 143°
2026-04-22 20:13 36.44406 -121.07873 34063 ft 495 kts 143°
2026-04-22 20:13 36.42037 -121.04761 34380 ft 497 kts 142°
2026-04-22 20:13 36.39731 -121.01544 34649 ft 500 kts 140°
2026-04-22 20:14 36.37465 -120.98260 34922 ft 502 kts 139°
2026-04-22 20:14 36.35209 -120.94950 35190 ft 502 kts 139°
2026-04-22 20:14 36.32950 -120.91640 35263 ft 505 kts 139°
2026-04-22 20:15 36.29156 -120.86142 35272 ft 504 kts 140°
2026-04-22 20:15 36.24541 -120.79577 35245 ft 500 kts 140°
2026-04-22 20:16 36.20028 -120.73106 35249 ft 498 kts 140°
2026-04-22 20:16 36.15520 -120.66640 35267 ft 495 kts 140°
2026-04-22 20:17 36.11016 -120.60203 35247 ft 495 kts 139°
2026-04-22 20:17 36.06499 -120.53715 35261 ft 500 kts 141°
2026-04-22 20:18 36.01977 -120.47128 35282 ft 502 kts 140°
2026-04-22 20:18 35.97294 -120.40788 35280 ft 500 kts 141°
2026-04-22 20:19 35.92677 -120.34292 35278 ft 504 kts 141°
2026-04-22 20:19 35.88040 -120.27828 35256 ft 502 kts 143°
2026-04-22 20:19 35.85484 -120.25007 35269 ft 486 kts 154°
2026-04-22 20:20 35.82693 -120.22757 35263 ft 476 kts 160°
2026-04-22 20:20 35.77008 -120.18603 35274 ft 475 kts 160°
2026-04-22 20:21 35.71342 -120.14435 35273 ft 476 kts 159°
2026-04-22 20:21 35.65718 -120.10119 35257 ft 476 kts 159°
2026-04-22 20:22 35.60082 -120.05857 35256 ft 476 kts 160°
2026-04-22 20:22 35.54424 -120.01613 35261 ft 476 kts 159°
2026-04-22 20:23 35.48766 -119.97349 35243 ft 477 kts 159°
2026-04-22 20:23 35.43102 -119.93089 35234 ft 478 kts 159°
2026-04-22 20:24 35.37444 -119.88839 35246 ft 477 kts 159°
2026-04-22 20:24 35.34595 -119.86710 34782 ft 483 kts 159°
2026-04-22 20:24 35.31732 -119.84562 34221 ft 481 kts 159°
2026-04-22 20:24 35.28880 -119.82416 33570 ft 482 kts 158°
2026-04-22 20:25 35.26122 -119.80138 32925 ft 488 kts 154°
2026-04-22 20:25 35.23411 -119.77619 32387 ft 488 kts 151°
2026-04-22 20:25 35.20765 -119.75045 31902 ft 485 kts 150°
2026-04-22 20:25 35.18106 -119.72451 31403 ft 480 kts 151°
2026-04-22 20:26 35.15527 -119.69968 30927 ft 476 kts 151°
2026-04-22 20:26 35.12891 -119.67471 30441 ft 471 kts 151°
2026-04-22 20:26 35.10303 -119.65048 29967 ft 467 kts 152°
2026-04-22 20:26 35.07738 -119.62661 29488 ft 462 kts 152°
2026-04-22 20:27 35.05194 -119.60300 29006 ft 457 kts 152°
2026-04-22 20:27 35.02671 -119.57961 28511 ft 453 kts 151°
2026-04-22 20:27 35.00179 -119.55651 28047 ft 448 kts 152°
2026-04-22 20:27 34.97711 -119.53362 27584 ft 444 kts 151°
2026-04-22 20:28 34.95258 -119.51092 27087 ft 441 kts 151°
2026-04-22 20:28 34.92827 -119.48840 26624 ft 437 kts 151°
2026-04-22 20:28 34.90410 -119.46609 26154 ft 434 kts 152°
2026-04-22 20:28 34.88030 -119.44465 25695 ft 429 kts 152°
2026-04-22 20:29 34.85628 -119.42329 25239 ft 426 kts 152°
2026-04-22 20:29 34.83247 -119.40210 24778 ft 422 kts 152°
2026-04-22 20:29 34.80885 -119.38103 24310 ft 419 kts 152°
2026-04-22 20:29 34.78544 -119.36010 23861 ft 417 kts 152°
2026-04-22 20:30 34.76214 -119.33928 23410 ft 414 kts 152°
2026-04-22 20:30 34.73896 -119.31869 22938 ft 412 kts 152°
2026-04-22 20:30 34.71563 -119.29830 22344 ft 412 kts 152°
2026-04-22 20:30 34.69244 -119.27815 21895 ft 408 kts 152°
2026-04-22 20:31 34.66928 -119.25842 21445 ft 404 kts 152°
2026-04-22 20:31 34.64659 -119.23847 21041 ft 402 kts 150°
2026-04-22 20:31 34.62419 -119.21836 20604 ft 399 kts 152°
2026-04-22 20:31 34.60165 -119.19895 20205 ft 397 kts 152°
2026-04-22 20:32 34.57919 -119.17964 19745 ft 394 kts 152°
2026-04-22 20:32 34.55686 -119.16064 19352 ft 391 kts 152°
2026-04-22 20:32 34.53484 -119.14139 18945 ft 388 kts 151°
2026-04-22 20:32 34.51314 -119.12203 18541 ft 387 kts 150°
2026-04-22 20:33 34.49157 -119.10252 18161 ft 387 kts 149°
2026-04-22 20:33 34.47007 -119.08299 17699 ft 385 kts 151°
2026-04-22 20:33 34.44838 -119.06415 17326 ft 382 kts 151°
2026-04-22 20:33 34.42677 -119.04552 16913 ft 381 kts 151°
2026-04-22 20:34 34.40513 -119.02701 16487 ft 379 kts 151°
2026-04-22 20:34 34.38375 -119.00858 16099 ft 376 kts 150°
2026-04-22 20:34 34.36262 -118.99026 15700 ft 373 kts 150°
2026-04-22 20:34 34.34160 -118.97204 15330 ft 371 kts 150°
2026-04-22 20:35 34.32090 -118.95350 14946 ft 369 kts 148°
2026-04-22 20:35 34.30047 -118.93482 14501 ft 368 kts 148°
2026-04-22 20:35 34.28012 -118.91625 14128 ft 365 kts 148°
2026-04-22 20:35 34.25991 -118.89787 13714 ft 363 kts 148°
2026-04-22 20:36 34.23983 -118.87955 13320 ft 361 kts 147°
2026-04-22 20:36 34.21991 -118.86122 12956 ft 358 kts 147°
2026-04-22 20:36 34.20039 -118.84324 12789 ft 346 kts 147°
2026-04-22 20:36 34.18162 -118.82594 12598 ft 335 kts 147°
2026-04-22 20:37 34.16333 -118.80912 12476 ft 326 kts 146°
2026-04-22 20:37 34.14621 -118.79142 12276 ft 322 kts 142°
2026-04-22 20:37 34.12972 -118.77318 11970 ft 321 kts 141°
2026-04-22 20:37 34.11339 -118.75489 11641 ft 320 kts 141°
2026-04-22 20:38 34.09707 -118.73687 11356 ft 317 kts 140°
2026-04-22 20:38 34.08107 -118.71911 11069 ft 309 kts 141°
2026-04-22 20:38 34.06513 -118.70210 10741 ft 302 kts 142°
2026-04-22 20:38 34.05003 -118.68531 10338 ft 299 kts 135°
2026-04-22 20:39 34.03603 -118.66725 10021 ft 294 kts 130°
2026-04-22 20:39 34.02741 -118.64518 9564 ft 294 kts 100°
2026-04-22 20:39 34.02508 -118.62076 9314 ft 291 kts 95°
2026-04-22 20:39 34.02307 -118.59667 9114 ft 287 kts 96°
2026-04-22 20:40 34.02097 -118.57283 8858 ft 285 kts 96°
2026-04-22 20:40 34.01881 -118.54921 8619 ft 282 kts 96°
2026-04-22 20:40 34.01666 -118.52594 8493 ft 275 kts 96°
2026-04-22 20:40 34.01454 -118.50338 8402 ft 267 kts 96°
2026-04-22 20:41 34.01248 -118.48147 8322 ft 259 kts 96°
2026-04-22 20:41 34.01055 -118.46032 8140 ft 250 kts 94°
2026-04-22 20:41 34.01226 -118.43952 7654 ft 253 kts 76°
2026-04-22 20:41 34.01644 -118.41888 7235 ft 254 kts 77°
2026-04-22 20:42 34.02023 -118.39808 6781 ft 255 kts 78°
2026-04-22 20:42 34.02393 -118.37706 6360 ft 256 kts 78°
2026-04-22 20:42 34.02752 -118.35599 6044 ft 256 kts 80°
2026-04-22 20:42 34.02994 -118.33521 5993 ft 246 kts 83°
2026-04-22 20:43 34.03186 -118.31518 5976 ft 236 kts 83°
2026-04-22 20:43 34.03375 -118.29560 5982 ft 234 kts 83°
2026-04-22 20:43 34.03587 -118.27614 5987 ft 234 kts 82°
2026-04-22 20:43 34.03799 -118.25665 5992 ft 234 kts 83°
2026-04-22 20:44 34.04008 -118.23720 5991 ft 234 kts 83°
2026-04-22 20:44 34.04214 -118.21785 5987 ft 230 kts 82°
2026-04-22 20:44 34.04413 -118.19930 5934 ft 217 kts 83°
2026-04-22 20:44 34.04600 -118.18158 5715 ft 211 kts 83°
2026-04-22 20:45 34.04785 -118.16403 5382 ft 211 kts 83°
2026-04-22 20:45 34.04925 -118.14643 5056 ft 211 kts 94°
2026-04-22 20:45 34.04423 -118.13028 4722 ft 206 kts 131°
2026-04-22 20:45 34.03253 -118.12111 4352 ft 203 kts 166°
2026-04-22 20:46 34.00524 -118.11993 3678 ft 198 kts 206°
2026-04-22 20:46 33.99394 -118.12900 3364 ft 195 kts 228°
2026-04-22 20:46 33.98530 -118.14153 3092 ft 191 kts 231°
2026-04-22 20:47 33.97702 -118.15365 2898 ft 185 kts 231°
2026-04-22 20:47 33.96890 -118.16550 2659 ft 183 kts 231°
2026-04-22 20:47 33.96082 -118.17750 2617 ft 185 kts 236°
2026-04-22 20:47 33.95721 -118.19175 2604 ft 178 kts 272°
2026-04-22 20:48 33.95637 -118.20667 2588 ft 180 kts 257°
2026-04-22 20:48 33.95399 -118.22152 2597 ft 183 kts 263°
2026-04-22 20:48 33.95244 -118.23687 2455 ft 186 kts 263°
2026-04-22 20:48 33.95090 -118.25226 2213 ft 184 kts 263°
2026-04-22 20:49 33.94933 -118.26736 1977 ft 180 kts 263°
2026-04-22 20:49 33.94779 -118.28199 1730 ft 172 kts 263°
2026-04-22 20:49 33.94635 -118.29613 1519 ft 170 kts 263°
2026-04-22 20:49 33.94487 -118.31034 1299 ft 170 kts 263°
2026-04-22 20:50 33.94344 -118.32411 1078 ft 160 kts 264°
2026-04-22 20:50 33.94211 -118.33694 893 ft 147 kts 263°
2026-04-22 20:50 33.94088 -118.34881 675 ft 140 kts 263°
2026-04-22 20:50 33.93969 -118.36014 508 ft 138 kts 263°
2026-04-22 20:51 33.93852 -118.37194 335 ft 143 kts 261°
2026-04-22 20:51 33.93726 -118.38370 128 ft 138 kts 260°
2026-04-22 20:51 33.93620 -118.39409 95 ft 109 kts 263°
2026-04-22 20:51 33.93563 -118.40004 95 ft 43 kts 268°
2026-04-22 20:52 33.93591 -118.40257 94 ft 21 kts 291°
2026-04-22 20:52 33.93625 -118.40378 94 ft 14 kts 279°
2026-04-22 20:52 33.93621 -118.40491 94 ft 13 kts 263°
2026-04-22 20:52 33.93609 -118.40598 93 ft 13 kts 262°
2026-04-22 20:53 33.93600 -118.40702 94 ft 12 kts 264°
2026-04-22 20:53 33.93595 -118.40805 93 ft 12 kts 278°
2026-04-22 20:53 33.93635 -118.40887 93 ft 12 kts 334°
2026-04-22 20:53 33.93714 -118.40904 94 ft 11 kts 353°
2026-04-22 20:54 33.93756 -118.40910 93 ft 2 kts 355°
2026-04-22 20:54 33.93789 -118.40873 93 ft 15 kts 76°
2026-04-22 20:54 33.93805 -118.40722 93 ft 19 kts 83°